Location: Harwich
(41.7160°N, 69.9939°W)
Time: 14:18:14
(UTC+01:00)

Courier 1B Rocket - Visible Passes

Search period start: 22 February 2024 00:00
Search period end: 03 March 2024 00:00
Orbit: 920 x 1202 km, 28.2° (Epoch: 21 February)

Date Brightness Start Highest point End Pass type
(mag) Time Alt. Az. Time Alt. Az. Time Alt. Az.
22 Feb 6.5 10:21:29 19° SSW 10:23:23 22° S 10:28:04 10° ESE visible
23 Feb 6.9 09:24:10 17° SSE 09:24:10 17° SSE 09:26:48 10° SE visible
23 Feb 6.5 11:10:32 11° SW 11:15:03 24° S 11:20:00 10° SE visible
24 Feb 6.3 10:13:12 22° S 10:14:13 23° S 10:19:03 10° SE visible
25 Feb 6.9 09:15:51 17° SE 09:15:51 17° SE 09:18:01 10° SE visible
25 Feb 6.4 11:02:13 14° SW 11:05:54 22° S 11:10:39 10° SE visible
26 Feb 6.3 10:04:52 23° S 10:05:06 23° S 10:09:54 10° SE visible
27 Feb 7.0 09:07:31 15° SE 09:07:31 15° SE 09:09:03 10° SE visible
27 Feb 6.5 10:53:53 15° SW 10:56:44 20° S 11:01:07 10° SSE visible
28 Feb 6.4 09:56:34 22° S 09:56:34 22° S 10:00:35 10° SE visible
28 Feb 6.9 11:45:35 10° SW 11:48:18 13° SSW 11:51:02 10° S visible
29 Feb 7.2 08:59:15 12° SE 08:59:15 12° SE 08:59:56 10° SE visible
29 Feb 6.6 10:45:37 14° SW 10:47:32 16° SSW 10:51:17 10° SSE visible
01 Mar 6.6 09:48:21 18° S 09:48:21 18° S 09:51:06 10° SSE visible
02 Mar 6.7 10:37:29 12° SSW 10:38:18 13° SSW 10:40:54 10° S visible
